RH
74 67 66 60 61 66 55 41 29 24 17 14 29 48 58 97 69 35 60 86 78 74 67 66 60 49 42 48 47 40 42 30 32 39 27 29 30 32 23 19 19 21 20 18 18
70 62 57 60 59 62 70 67 41 32 28 19 12 21 46 68 82 44 100 59 52 81 80 64 59 55 48 45 51 48 52 46 30 33 42 31 32 34 38 27 21 22 22 22 23
81 76 72 73 75 72 60 73 65 44 28 23 18 11 21 44 68 84 81 55 35 66 82 70 55 58 55 49 53 58 60 48 45 31 37 44 33 34 38 38 31 23 26 25 29
100 92 99 96 86 88 79 74 68 53 30 22 20 16 12 22 45 94 71 68 58 68 85 66 55 59 62 57 62 60 58 48 52 45 33 38 42 35 36 42 39 28 27 29 28
96 91 94 93 96 98 86 87 82 62 40 16 17 20 16 10 22 50 60 66 71 78 84 76 66 50 58 59 57 64 58 44 56 50 38 31 37 43 39 40 47 38 27 28 29
82 100 99 89 93 93 98 86 85 68 42 20 12 15 19 14 21 24 43 58 73 75 80 87 98 68 53 52 50 89 64 44 51 62 42 39 36 36 41 43 39 43 40 36 35
95 69 75 85 86 94 97 91 86 76 46 24 11 10 16 25 20 12 24 40 69 86 82 89 99 95 70 50 47 70 85 38 48 60 54 51 44 55 37 44 38 33 31 32 31
90 85 94 78 90 82 86 100 100 71 53 24 12 8 11 18 20 16 14 41 41 55 57 70 90 93 88 54 44 48 74 42 60 60 70 59 61 88 46 38 42 34 32 30 31
90 84 84 82 82 89 74 95 92 63 56 27 14 9 11 14 19 23 10 18 44 41 38 43 77 81 91 82 45 40 52 48 87 71 65 60 91 82 61 53 43 41 40 40 38
84 91 95 74 84 70 73 93 77 60 53 36 13 10 11 11 15 19 13 11 22 36 44 34 47 65 67 76 57 47 44 52 75 100 85 67 85 81 63 61 72 48 41 50 53
89 100 99 100 86 65 65 79 58 46 42 41 15 10 10 9 12 15 14 12 13 29 40 38 32 34 52 63 88 62 50 44 70 94 100 94 76 85 58 48 64 76 79 66 62
100 95 99 100 98 70 50 50 36 35 50 45 10 9 8 7 12 18 18 14 11 15 38 36 30 43 46 62 77 70 56 47 52 80 81 100 76 93 58 53 63 78 92 84 70
100 97 87 97 100 46 42 40 28 23 26 46 10 7 7 7 12 15 17 15 13 13 29 36 44 65 51 51 61 52 59 49 51 56 69 100 89 100 76 57 60 68 75 77 76
100 88 81 93 99 46 20 18 17 19 21 20 11 6 7 8 12 16 18 16 14 13 15 28 88 74 49 41 66 51 82 98 70 58 47 61 77 94 100 67 60 71 70 67 67
100 100 85 74 76 35 14 12 13 16 14 13 11 6 7 8 10 11 15 16 16 19 17 20 61 58 57 48 96 99 100 100 100 91 60 45 48 90 100 90 85 97 96 90 82
100 99 77 72 69 26 15 12 12 13 11 9 8 7 6 10 10 13 9 14 15 21 23 23 76 78 51 63 56 100 100 81 90 91 67 45 36 63 96 100 100 100 100 100 100
100 100 95 74 60 23 12 12 10 11 9 8 6 7 7 10 9 15 10 11 14 16 20 21 25 47 60 69 55 94 100 90 66 77 64 44 26 34 96 98 100 100 100 100 99
100 100 92 82 57 19 12 11 10 9 10 7 6 6 6 8 8 11 11 10 13 19 23 27 18 22 31 55 64 61 100 98 69 42 51 59 26 24 69 89 100 100 100 100 100
88 100 76 59 40 18 13 11 10 9 10 7 5 6 6 8 8 8 7 10 16 26 22 22 19 22 47 77 79 66 66 98 100 85 59 50 47 36 39 96 96 100 100 100 100
86 75 66 41 29 17 13 13 12 8 8 6 5 6 6 8 8 7 9 9 11 16 20 20 27 23 51 98 85 77 71 72 100 97 50 46 57 46 48 68 100 100 98 96 88
100 99 41 24 26 15 13 13 12 8 7 5 5 5 6 7 7 6 10 10 12 17 15 20 24 33 37 32 56 75 69 61 66 90 88 49 48 79 77 76 94 100 100 99 91
80 79 31 23 16 14 12 13 12 7 6 4 4 5 5 6 8 6 10 12 16 18 20 21 21 31 29 31 77 95 85 74 59 55 69 62 60 91 79 84 78 70 100 100 100
52 38 31 15 12 14 12 10 8 8 5 4 4 4 5 6 7 8 8 10 14 21 20 21 20 22 24 28 45 67 75 74 59 53 45 61 80 100 100 100 100 92 92 100 100
42 18 12 13 12 11 10 9 6 6 4 3 4 4 6 6 7 8 8 7 9 17 25 20 18 15 19 19 19 34 57 62 62 52 45 35 69 94 85 100 100 100 92 88 97
30 16 13 13 12 8 7 6 4 4 4 3 3 4 5 6 6 7 8 8 7 10 23 30 22 17 19 25 22 16 29 52 51 60 52 56 42 67 97 100 100 100 100 98 99
15 13 10 12 9 5 4 4 3 3 3 2 3 4 5 6 7 7 8 8 8 8 11 20 24 18 22 21 22 28 23 29 30 45 54 63 51 64 60 84 100 100 100 100 100
13 10 8 10 7 4 3 3 3 3 3 2 3 4 5 5 6 7 7 8 8 8 8 9 18 21 28 23 24 28 27 27 22 34 50 47 71 96 71 66 84 97 100 100 100
Wind_Speed
55 55 54 55 52 51 57 63 71 86 97 108 112 110 104 98 91 83 85 91 81 74 71 67 65 64 60 56 53 50 46 44 40 35 34 30 26 23 21 25 23 21 18 16 14
61 59 57 58 56 57 52 58 67 73 80 100 110 115 115 108 101 86 102 92 84 82 79 74 72 68 65 61 57 54 53 50 46 41 37 36 33 29 26 23 23 22 20 18 17
65 64 62 60 62 61 59 58 62 72 75 86 100 112 121 117 108 93 106 93 88 89 85 79 75 74 69 66 62 60 60 55 51 48 44 39 38 34 31 28 26 26 25 23 23
73 71 67 67 63 62 59 60 59 65 72 77 88 102 112 122 113 109 104 98 99 93 89 81 77 77 76 71 70 65 64 60 57 54 49 45 41 39 37 32 32 30 29 29 29
76 77 75 73 68 62 60 60 57 61 65 70 74 88 105 114 111 116 117 107 104 99 94 89 82 82 78 78 74 69 69 63 62 59 54 50 46 43 41 39 36 35 34 32 32
78 79 81 78 75 68 65 58 57 63 63 64 63 77 96 103 104 122 125 118 108 103 100 96 91 90 84 80 76 76 75 69 65 61 58 55 51 47 45 45 42 38 37 38 37
82 84 80 80 78 72 67 60 61 61 62 63 61 66 84 86 105 118 124 124 119 112 107 104 100 96 89 84 83 81 78 73 67 65 62 61 55 53 53 48 45 44 41 38 35
86 87 82 83 79 75 71 65 62 60 58 57 58 61 62 85 102 112 127 128 128 124 118 113 109 102 96 90 84 86 81 76 71 68 67 65 60 64 59 55 51 48 46 43 40
95 94 87 88 81 77 71 67 60 56 55 58 57 54 53 77 96 112 126 126 132 129 123 121 115 107 104 98 92 84 82 78 77 73 72 68 67 71 63 60 58 53 51 47 45
100 101 98 91 88 78 71 70 59 49 53 60 58 52 55 73 91 111 123 129 133 134 131 125 120 114 108 103 87 84 83 83 81 77 77 74 72 75 67 63 61 59 56 54 51
99 102 105 102 94 79 71 70 57 47 50 58 60 51 58 70 84 105 125 128 134 137 136 129 123 116 101 97 97 98 94 92 91 91 84 80 78 78 71 65 61 60 60 60 58
105 106 104 104 102 83 73 69 56 42 38 65 58 49 60 72 78 98 122 128 132 135 132 132 127 107 105 105 102 101 99 95 100 96 89 85 81 82 74 67 67 65 64 62 62
108 108 104 104 103 89 77 72 58 44 36 61 56 49 61 67 73 94 118 127 127 129 135 135 119 114 108 106 104 100 97 98 101 104 97 91 86 83 79 73 71 68 68 65 64
117 111 106 105 104 92 80 70 56 47 37 56 52 52 56 63 71 88 109 127 128 125 133 138 127 119 117 112 109 104 99 107 108 109 106 101 90 84 82 76 71 70 69 69 66
118 115 114 104 100 92 83 72 59 49 44 48 49 51 52 60 72 87 100 124 129 125 131 133 130 126 122 112 112 104 113 113 115 115 113 107 95 85 81 75 71 69 72 72 70
124 119 116 107 104 91 83 73 61 52 40 49 45 48 51 55 70 87 93 113 124 128 129 129 131 132 123 122 120 119 121 119 121 124 122 104 96 86 83 75 74 75 76 74 72
124 123 119 112 100 92 85 75 58 51 45 41 43 45 48 53 66 86 91 99 117 126 129 126 133 135 130 128 128 128 125 125 125 126 112 103 99 84 85 80 75 77 78 76 72
125 121 120 112 97 89 84 77 64 50 46 44 39 42 45 51 65 84 90 96 107 123 127 126 129 135 133 133 130 126 124 122 122 116 101 103 100 84 86 84 80 78 82 80 78
121 125 119 111 96 88 83 75 66 55 52 42 42 41 43 48 64 77 84 91 104 113 124 128 130 133 134 133 131 125 130 122 124 121 109 108 101 92 89 89 87 89 88 82 81
127 128 119 109 94 89 82 74 70 61 53 41 42 40 42 48 61 70 81 87 100 111 123 127 129 128 136 138 138 137 126 131 133 128 113 105 100 92 88 89 89 91 89 88 84
127 131 117 105 92 85 82 75 70 62 50 42 39 38 41 46 58 66 76 84 93 107 115 118 127 128 136 137 139 139 139 137 136 131 118 105 96 96 96 95 97 95 92 90 88
125 123 113 102 92 84 80 74 68 61 49 42 38 37 41 44 54 65 72 84 91 103 112 118 127 131 127 135 141 143 140 138 135 128 117 107 99 99 96 96 96 99 98 95 91
127 118 111 102 93 86 80 75 65 59 50 41 38 38 38 43 53 66 72 81 89 97 106 114 122 130 134 136 143 147 144 141 138 133 129 121 108 106 104 102 100 100 103 99 94
126 117 109 99 94 86 78 73 64 56 49 40 37 39 37 43 52 67 73 80 85 92 101 111 119 125 133 136 136 146 147 146 143 140 130 123 109 107 106 103 102 102 104 102 97
121 115 107 100 92 86 75 68 57 50 46 39 37 38 39 41 52 64 73 78 82 88 95 104 111 115 124 129 128 133 142 145 144 138 133 120 112 108 107 106 106 106 104 101 99
118 112 103 96 90 81 71 62 53 44 42 38 36 37 40 47 53 60 71 77 80 87 94 102 107 109 110 121 128 127 132 140 143 140 139 128 117 112 113 111 110 106 105 102 101
123 116 103 95 89 78 67 56 49 41 37 37 35 39 41 45 49 61 67 74 83 87 93 95 97 103 100 108 118 128 125 133 135 136 136 128 112 117 113 110 111 107 105 103 102
Wind_Direction
335 329 321 315 309 302 290 273 260 253 249 245 242 239 239 235 232 234 238 237 234 232 234 236 231 228 225 225 230 230 229 226 227 221 216 211 209 212 222 229 230 228 226 217 213
336 332 327 320 311 303 299 287 273 262 250 245 241 239 236 235 231 228 238 236 234 233 235 236 232 228 225 224 226 228 230 228 225 226 221 218 214 216 212 222 221 217 206 210 207
340 337 334 330 323 312 297 295 280 272 260 245 242 239 235 235 231 227 234 234 234 235 235 234 231 227 226 224 223 225 228 228 227 225 225 221 220 216 216 214 219 208 197 195 189
343 340 342 338 329 322 313 302 292 276 268 257 243 239 235 231 231 227 231 232 233 234 236 232 229 227 226 224 224 223 226 225 228 227 223 226 224 220 218 217 219 215 209 199 199
340 339 337 337 334 327 320 310 301 289 274 266 250 237 234 230 226 228 232 228 230 231 234 232 230 228 227 226 224 223 225 225 226 228 225 227 227 222 222 221 220 223 219 219 215
338 336 334 335 337 332 326 315 309 294 284 272 258 240 232 228 223 225 229 227 227 228 229 233 230 227 227 226 225 224 225 224 226 228 229 227 227 227 224 225 225 225 226 229 230
340 336 332 332 334 334 332 323 314 303 287 276 262 244 233 227 220 222 224 228 226 227 229 230 231 229 228 225 223 226 226 225 225 227 230 230 229 231 227 228 228 225 228 231 233
339 339 334 334 332 329 329 330 318 303 291 280 266 250 239 229 219 221 222 224 225 226 226 228 229 229 228 227 224 225 226 224 225 226 228 230 230 231 229 228 229 231 233 234 236
342 339 337 338 333 333 330 329 322 306 295 280 265 256 242 231 221 218 223 219 224 225 225 226 227 226 227 228 225 224 226 224 227 225 226 228 229 232 231 229 230 230 233 236 239
340 340 339 337 338 333 328 327 320 307 297 281 267 253 243 232 221 217 222 219 221 224 224 224 225 226 226 227 229 230 226 226 227 227 226 225 226 231 229 229 231 235 235 238 240
338 340 338 338 338 334 328 325 320 308 300 279 267 253 241 232 225 217 219 219 219 222 224 224 224 226 227 227 225 228 228 223 226 225 225 224 223 231 230 229 232 233 237 238 240
338 338 337 340 337 335 330 324 317 306 298 283 265 257 240 232 224 217 217 219 219 219 222 224 224 223 224 224 224 225 226 224 226 229 225 226 224 231 229 228 231 234 235 240 243
339 337 336 339 338 334 330 327 320 306 287 276 270 254 242 235 225 221 216 218 219 217 219 223 222 221 223 224 225 226 226 229 226 228 225 225 224 229 230 227 229 233 236 239 242
341 337 336 338 336 334 331 326 319 308 288 272 269 257 246 236 225 224 217 217 218 218 218 219 218 218 221 222 223 224 225 226 226 228 227 224 220 224 232 229 229 232 238 239 240
340 340 338 337 335 333 332 327 321 306 288 274 269 253 242 235 225 224 220 218 218 216 218 217 217 217 218 221 222 221 224 226 225 227 227 225 220 222 230 230 232 233 235 238 240
340 341 337 336 336 332 330 329 321 306 293 280 271 258 243 233 225 225 221 222 217 217 218 215 215 216 216 218 220 220 224 224 226 227 227 224 221 219 226 231 232 234 237 239 242
340 339 337 337 333 331 328 326 321 312 295 285 273 258 242 230 222 224 222 220 219 219 219 217 214 216 214 217 219 219 222 226 227 228 227 228 228 214 224 226 232 236 238 240 242
338 338 337 336 333 330 327 324 324 319 308 291 277 260 241 227 224 223 223 217 217 219 219 219 218 216 213 217 220 221 223 227 231 232 228 228 232 221 223 229 231 236 240 241 242
337 338 337 335 332 327 327 323 321 318 312 295 280 262 239 226 228 225 225 220 217 218 221 219 218 215 214 215 221 222 224 226 229 231 227 225 227 224 222 229 232 235 238 241 242
339 338 335 333 331 328 325 323 319 315 311 296 280 263 240 223 226 223 226 222 219 219 220 218 216 215 213 214 218 220 222 225 228 230 228 225 225 225 227 230 233 236 240 241 242
338 337 333 332 329 325 322 322 316 313 308 295 280 263 244 229 224 223 223 225 221 220 221 219 217 215 215 215 216 220 222 223 226 227 227 225 224 226 227 231 235 237 238 242 245
336 334 331 328 327 326 322 318 315 311 306 293 276 262 243 228 222 222 217 223 222 221 220 219 218 214 216 215 216 220 221 225 228 229 228 227 223 225 229 232 234 239 240 241 244
334 332 331 328 324 325 320 314 312 308 304 292 274 258 242 230 218 218 215 219 222 223 223 221 220 218 216 215 215 218 221 224 226 226 225 222 221 225 229 233 236 238 241 243 244
334 331 330 329 327 322 318 312 309 305 299 288 272 255 239 228 221 215 213 217 219 223 223 224 223 221 217 219 216 217 219 222 224 226 226 224 221 225 228 233 237 239 241 243 244
331 330 329 329 324 320 316 311 307 301 292 284 267 252 240 228 221 216 216 215 217 221 224 226 227 224 221 219 222 221 221 222 224 227 228 226 221 224 228 232 235 238 241 244 246
331 329 328 325 322 319 315 313 307 298 288 281 265 249 237 225 218 216 215 214 214 217 221 226 227 229 223 225 221 220 224 225 225 225 227 225 222 225 227 230 234 236 240 242 245
330 329 327 326 321 317 314 312 305 297 285 276 261 245 235 232 221 220 214 214 215 216 220 223 228 232 227 224 223 223 223 225 228 228 229 228 227 228 227 229 234 235 238 241 243